Location: ??? ???
(33.4974°N, 35.4618°E)
Time: 18:07:57
(UTC+00:00)

COSMO-SKYMED 1 - Pass Details

Date: 29 October 2020
Orbit: 621 x 623 km, 97.9° (Epoch: 30 November)

Event Time Altitude Azimuth Distance (km) Brightness Sun altitude
Rises 15:27:16 0° 15° (NNE) 2,906 5.7 -8.6°
Reaches altitude 10° 15:29:29 10° 18° (NNE) 1,995 4.9 -9.1°
Maximum altitude 15:33:48 66° 101° (E) 681 2.5 -10.0°
Drops below altitude 10° 15:38:05 10° 184° (S) 1,981 5.3 -10.9°
Sets 15:40:17 0° 187° (S) 2,883 6.2 -11.3°
